Weather History for Erzurum, Turkey

Change the Weather History Date:

Saturday, September 28, 2013

  Actual Average Record
Temperature  
Mean Temperature 49 °F -  
Max Temperature 69 °F 59 °F 80 °F (2002)
Min Temperature 29 °F 37 °F 29 °F (2013)
Degree Days  
Heating Degree Days 16    
Moisture  
Dew Point 29 °F    
Average Humidity 44    
Maximum Humidity 80    
Minimum Humidity 9    
Precipitation  
Precipitation 0.02 in 0.06 in - ()
Sea Level Pressure  
Sea Level Pressure 29.99 in    
Wind  
Wind Speed 5 mph ()    
Max Wind Speed 18 mph    
Max Gust Speed 40 mph    
Visibility 6.8 miles    
Events Rain , Thunderstorm    
Averages and records for this station are not official NWS values.
T = Trace of Precipitation, MM = Missing Value Source: Averaged Metar Reports

Daily Weather History Graph

Daily Weather History Graph

Search for Another Location

Airport:

Trip Planner

Search our weather history database for the weather conditions in past years. The results will help you decide how hot, cold, wet, or windy it might be!

Date:

Astronomy

Sep. 28, 2013 Rise Set
Actual Time 6:08 AM EEST 6:02 PM EEST
Civil Twilight 5:41 AM EEST 6:29 PM EEST
Nautical Twilight 5:10 AM EEST 7:01 PM EEST
Astronomical Twilight 4:38 AM EEST 7:32 PM EEST
Moon No Moon Rise 2:07 PM EEST (9/28)
Length of Visible Light 12h 48m
Length of Day
11h 54m
Last Quarter, 39% of the Moon is Illuminated
Sep 28
Last Quarter
Oct 5
New
Oct 12
First Quarter
Oct 19
Full
Oct 27
Last Quarter

Hourly Weather History & Observations

Time (EEST) Temp. Windchill Dew Point Humidity Pressure Visibility Wind Dir Wind Speed Gust Speed Precip Events Conditions
12:20 AM 42.8 °F - 23.0 °F 46% 30.01 in - Variable 2.3 mph - N/A   Clear
12:50 AM 39.2 °F - 24.8 °F 56% 30.01 in - Variable 1.2 mph - N/A   Clear
1:20 AM 37.4 °F - 24.8 °F 60% 30.01 in - Calm Calm - N/A   Clear
1:50 AM 39.2 °F 37.0 °F 23.0 °F 52% 30.01 in - WSW 3.5 mph - N/A   Clear
2:20 AM 33.8 °F - 23.0 °F 65% 30.01 in - Calm Calm - N/A   Clear
2:50 AM 37.4 °F - 23.0 °F 56% 30.01 in - West 2.3 mph - N/A   Clear
3:00 AM 37 °F - 23 °F 44%  in 12 mi West 2.3 mph - -  
3:20 AM 35.6 °F - 24.8 °F 65% 30.01 in - Calm Calm - N/A   Clear
3:50 AM 32.0 °F 28.7 °F 24.8 °F 75% 30.01 in - South 3.5 mph - N/A   Clear
4:20 AM 35.6 °F - 23.0 °F 60% 30.01 in - Calm Calm - N/A   Clear
4:50 AM 32.0 °F - 24.8 °F 75% 30.01 in - Calm Calm - N/A   Clear
5:20 AM 32.0 °F - 23.0 °F 69% 30.01 in - Calm Calm - N/A   Clear
5:50 AM 30.2 °F - 24.8 °F 80% 30.01 in 6.2 mi Variable 2.3 mph - N/A   Partly Cloudy
6:20 AM 32.0 °F 27.5 °F 24.8 °F 75% 30.01 in 6.2 mi SSW 4.6 mph - N/A   Partly Cloudy
6:50 AM 33.8 °F 29.6 °F 23.0 °F 65% 30.01 in 6.2 mi SW 4.6 mph - N/A   Partly Cloudy
7:20 AM 39.2 °F - 26.6 °F 61% 30.01 in 6.2 mi Variable 1.2 mph - N/A   Partly Cloudy
7:50 AM 42.8 °F - 28.4 °F 57% 30.01 in - Variable 1.2 mph - N/A   Clear
8:20 AM 50.0 °F - 26.6 °F 40% 30.01 in - Calm Calm - N/A   Clear
8:50 AM 53.6 °F - 24.8 °F 33% 30.01 in - Variable 2.3 mph - N/A   Clear
9:00 AM 54 °F - 25 °F 20%  in 12 mi East 2.3 mph - -   Scattered Clouds
9:20 AM 57.2 °F - 28.4 °F 33% 30.01 in - NE 3.5 mph - N/A   Clear
9:50 AM 59.0 °F - 26.6 °F 29% 29.98 in - ENE 5.8 mph - N/A   Clear
10:20 AM 60.8 °F - 24.8 °F 25% 29.98 in - NNE 3.5 mph - N/A   Clear
10:50 AM 64.4 °F - 24.8 °F 22% 29.98 in - NE 4.6 mph - N/A   Clear
11:20 AM 66.2 °F - 24.8 °F 21% 29.98 in - NW 4.6 mph - N/A   Clear
11:50 AM 68.0 °F - 24.8 °F 20% 29.95 in 6.2 mi NW 6.9 mph - N/A   Partly Cloudy
12:20 PM 66.2 °F - 24.8 °F 21% 29.95 in 6.2 mi West 8.1 mph - N/A   Scattered Clouds
12:50 PM 66.2 °F - 26.6 °F 23% 29.95 in 6.2 mi Variable 3.5 mph - N/A   Mostly Cloudy
1:20 PM 68.0 °F - 26.6 °F 21% 29.95 in 6.2 mi WSW 11.5 mph - N/A   Mostly Cloudy
1:50 PM 66.2 °F - 24.8 °F 21% 29.92 in 6.2 mi West 16.1 mph - N/A   Mostly Cloudy
2:20 PM 68.0 °F - 24.8 °F 20% 29.92 in 6.2 mi West 18.4 mph - N/A   Mostly Cloudy
2:50 PM 68.0 °F - 23.0 °F 18% 29.92 in 6.2 mi West 18.4 mph - N/A   Mostly Cloudy
3:00 PM 69 °F - 24 °F 9%  in 12 mi West 18.4 mph - -   Partly Cloudy
3:20 PM 66.2 °F - 26.6 °F 23% 29.95 in 6.2 mi WSW 13.8 mph - N/A   Mostly Cloudy
3:50 PM 66.2 °F - 26.6 °F 23% 29.95 in 6.2 mi WSW 13.8 mph - N/A   Scattered Clouds
3:53 PM 64.4 °F - 30.2 °F 28% 29.95 in 6.2 mi WSW 11.5 mph - N/A Rain , Thunderstorm Light Thunderstorms and Rain
4:20 PM 66.2 °F - 30.2 °F 26% 29.95 in 6.2 mi SSW 10.4 mph - N/A Rain , Thunderstorm Light Thunderstorms and Rain
4:28 PM 64.4 °F - 30.2 °F 28% 29.95 in 6.2 mi SW 11.5 mph - N/A   Mostly Cloudy
4:50 PM 64.4 °F - 30.2 °F 28% 29.95 in 6.2 mi West 16.1 mph - N/A   Mostly Cloudy
5:04 PM 64.4 °F - 30.2 °F 28% 29.95 in 6.2 mi WNW 10.4 mph - N/A Rain , Thunderstorm Light Thunderstorms and Rain
5:14 PM 59.0 °F - 35.6 °F 42% 29.98 in 6.2 mi WNW 18.4 mph 40.3 mph N/A Rain Light Rain Showers
5:20 PM 57.2 °F - 37.4 °F 48% 29.98 in 6.2 mi NNW 8.1 mph 27.6 mph N/A   Mostly Cloudy
5:50 PM 55.4 °F - 41.0 °F 58% 29.98 in 6.2 mi Variable 3.5 mph - N/A   Mostly Cloudy
6:20 PM 57.2 °F - 35.6 °F 44% 29.98 in 6.2 mi WSW 10.4 mph - N/A   Mostly Cloudy
6:50 PM 55.4 °F - 39.2 °F 54% 30.01 in 6.2 mi SSW 13.8 mph - N/A   Mostly Cloudy
7:20 PM 53.6 °F - 37.4 °F 54% 30.01 in 6.2 mi SW 5.8 mph - N/A   Scattered Clouds
7:50 PM 55.4 °F - 37.4 °F 51% 30.04 in 6.2 mi SW 6.9 mph - N/A   Scattered Clouds
8:20 PM 53.6 °F - 37.4 °F 54% 30.04 in 6.2 mi WSW 12.7 mph - N/A   Scattered Clouds
8:50 PM 53.6 °F - 39.2 °F 58% 30.06 in 6.2 mi WSW 10.4 mph - N/A   Scattered Clouds
9:00 PM 54 °F - 38 °F 43%  in 12 mi WSW 10.4 mph - -   Partly Cloudy
9:20 PM 53.6 °F - 37.4 °F 54% 30.04 in 6.2 mi SW 5.8 mph - N/A   Scattered Clouds
9:50 PM 51.8 °F - 37.4 °F 58% 30.04 in 6.2 mi SW 4.6 mph - N/A   Scattered Clouds
10:20 PM 51.8 °F - 37.4 °F 58% 30.04 in 6.2 mi SW 6.9 mph - N/A   Scattered Clouds
10:50 PM 51.8 °F - 37.4 °F 58% 30.06 in 6.2 mi WSW 11.5 mph - N/A   Scattered Clouds
11:20 PM 51.8 °F - 37.4 °F 58% 30.06 in 6.2 mi WSW 10.4 mph - N/A   Scattered Clouds
11:50 PM 50.0 °F - 37.4 °F 62% 30.06 in 6.2 mi WSW 11.5 mph - N/A   Scattered Clouds